Find Starlink 5235

NORAD ID: 54185 Int'l Des: 2022-141 Owner: SPXS Country: US Constellation: starlink operational
LEOCIRCULAR

リアルタイム位置

3D地球を読み込み中...

Starlink 5235について

説明を読み込み中...

次回通過

Passes for default location (London). Set your location on the main map for personalized predictions.

高度履歴

Loading altitude history...

軌道要素

1 54185U 22141AE 26120.43848507 .00000489 00000-0 48807-4 0 9995
2 54185 53.2160 131.5482 0001159 76.7466 283.3655 15.08842096193679
Epoch: Apr 30, 2026 • Age: 7 hours

現在のステータス

高度 545.2 km
速度 7.60 km/s
衛星直下点 51.71°N, 121.24°E
打ち上げ日 Oct 28, 2022
運用期間 3.5 years
タイプ internet

技術仕様

分類 Payload
質量 305.00 kg
乾燥質量 290.00 kg
総質量 305.00 kg
長さ 0.20 m
直径 2.80 m
スパン 9.00 m
形状 Box + pan
製造者 SPXS
バスタイプ Starlink
フェーズステータス In Orbit
所有者/国 SPXS/US

Most Searched